Regional Weather Roundup
Issued by NWS

Home | Current Version | Previous Version | Text Only | Print | Product List | Glossary Off
Versions: 1 2 3 4 5 6 7 8 9 10 11 12 13 14 15 16 17 18 19 20 21 22 23 24 25 26 27 28 29 30 31 32 33 34 35 36 37 38 39 40 41 42 43 44 45 46 47 48 49 50

699
ASUS45 KSLC 242010
RWRUT

UTAH REGIONAL WEATHER ROUNDUP
NATIONAL WEATHER SERVICE SALT LAKE CITY UT
200 PM MDT SUN SEP 24 2017

UTZ001>011-023>025-242100-

NORTHERN UTAH

CITY           SKY/WX    TMP DP  RH WIND       PRES   REMARKS
BRIGHAM CITY   CLOUDY    46  37  72 N8        30.00R
HILL AFB       LGT RAIN  45  41  86 W5        29.97R
LOGAN          CLOUDY    45  39  79 NW7       30.00R
OGDEN          LGT RAIN  48  41  76 NW16      29.97R
SALT LAKE CITY RAIN      46  43  89 NW10      30.00R FOG
TOOELE VALLEY  RAIN      43  39  87 W18       30.03R
WENDOVER       PTSUNNY   58  30  34 W14G22    30.02S
HEBER CITY     LGT SNOW  34  32  93 CALM      29.98R
WEST JORDAN    CLOUDY    41  41 100 S9        30.02R

$$

UTZ011>015-024>027-242100-

CENTRAL/NORTHEAST UTAH

CITY           SKY/WX    TMP DP  RH WIND       PRES   REMARKS
PROVO AIRPORT  LGT RAIN  39  37  93 SE10      30.03R WCI  32
MOAB/CANYONLAN PTSUNNY   62  26  25 W16       29.91S
DELTA          CLOUDY    41  37  87 SE13      30.06S
PRICE          NOT AVBL
RICHFIELD      CLOUDY    46  36  66 SE12G17   30.06R
ROOSEVELT      MIX PCPN  41  36  81 W17G25    29.99R
VERNAL         CLOUDY    50  36  58 S9        29.95R

$$

UTZ013>016-019>022-027-242100-

SOUTHERN UTAH

CITY           SKY/WX    TMP DP  RH WIND       PRES   REMARKS
BRYCE CANYON   SUNNY     47  27  45 NW17G25   30.05R
CEDAR CITY     MOSUNNY   50  34  54 N7        30.05S
MILFORD        CLOUDY    52  36  54 N5        30.04S
ST GEORGE      CLOUDY    64  31  28 W7        30.00F
HANKSVILLE     PTSUNNY   61  27  27 W7        29.95F
KANAB          SUNNY     61  28  29 S10       30.04F
BLANDING         N/A     57  19  22 SW13G21   30.06F

$$

REGIONAL REPORTS     COLORADO/ARIZONA

CITY           SKY/WX    TMP DP  RH WIND       PRES   REMARKS
CRAIG, CO      PTSUNNY   60  26  27 W17G25    29.90F
GRAND JUNCTION MOSUNNY   59  33  37 NW10G16   29.92F
RIFLE, CO      MOSUNNY   60  32  34 W22G31    29.90S
MONTROSE, CO   PTSUNNY   60  28  29 W18       29.93S
CORTEZ, CO     MOSUNNY   58  25  28 SW14G22   30.00R
PAGE, AZ       SUNNY     62  25  24 MISG      29.96F
GRAND CANYON   SUNNY     55  12  18 N7        30.03F
KINGMAN, AZ    SUNNY     69  28  21 N9        29.99F
FLAGSTAFF, AZ  SUNNY     56  -3   9 W7        30.02F

$$

REGIONAL REPORTS    NEVADA/IDAHO/WYOMING

CITY           SKY/WX    TMP DP  RH WIND       PRES   REMARKS
LAS VEGAS, NV  SUNNY     70  26  19 NE7       29.97F
ELY, NY        MOSUNNY   49  29  46 VRB7      30.07F
ELKO, NV       PTSUNNY   52  25  35 NW10G17   30.08S
POCATELLO, ID  MOSUNNY   55  33  43 W9        30.01F
BURLEY, ID     MOSUNNY   53  33  46 W7        30.02F
FORT BRIDGER,  RAIN      36  36 100 SE3       29.96S
EVANSTON, WY   SNOW      34  34 100 N12       29.95R VSB 1/2 WCI  25
ROCK SPRINGS,  CLOUDY    43  38  82 E15       29.98S

$$




USA.gov is the U.S. government's official web portal to all federal, state and local government web resources and services.